Flag Weather past 2 weeks in Damascus, Syria

Now
50 °F

Rain. Passing clouds.


Feels Like: 44 °F
Forecast: 43 / 62 °F
Wind: 17 mph from Southwest

Location: Damascus Int. Airport

Current Time: Nov 26, 2014 at 2:47:00 AM

Latest Report: Nov 26, 2014 at 2:00 AM


Visibility: N/A

Pressure: 29.86 "Hg

Humidity: 94%

Dew point: 48 °F

Location of DamascusLocation

Historic Weather in Damascus — Graph

°F

Damascus temperature yesterday

Maximum temperature yesterday: 59 °F (at 12:00 PM)
Minimum temperature yesterday: 46 °F (at 7:00 AM)
Average temperature yesterday: 53 °F

Past Weeks' High & Low Weather Summary

 TemperatureHumidityPressure
High75 °F (Nov 11, 2:00 PM)100% (Nov 17, 7:00 AM)30.30 "Hg (Nov 17, 7:00 AM)
Low37 °F (Nov 23, 7:00 AM)10% (Nov 11, 2:00 PM)29.86 "Hg (Nov 16, 2:00 PM)
Average55 °F55%30.03 "Hg
* Reported Nov 11 1:00 AM — Nov 26 1:00 AM, Damascus, Weather by CustomWeather, © 2014

Note: Actual official high and low records may vary slightly from our data, if they occured in-between our weather recording intervals... More about our weather records

Advertising

Damascus weather history for previous 24 hours

 ConditionsComfort  
Time TempWeatherWind HumidityBarometerVisibility
1:00 AM
Nov 26
50 °FRain. Passing clouds.23 mph100%29.86 "HgN/A
12:00 AM52 °FRain. Passing clouds.25 mph94%29.86 "HgN/A
11:00 PM
Nov 25
52 °FRain. Passing clouds.24 mph94%29.86 "HgN/A
10:00 PM52 °FRain. Passing clouds.15 mph94%29.86 "HgN/A
9:00 PM52 °FRain. Passing clouds.8 mph94%29.89 "HgN/A
8:00 PM52 °FRain. Passing clouds.13 mph88%29.92 "HgN/A
7:00 PM54 °FRain. Passing clouds.14 mph82%29.92 "HgN/A
6:00 PM55 °FPassing clouds.14 mph67%29.92 "HgN/A
5:00 PM57 °FPassing clouds.15 mph63%29.92 "HgN/A
4:00 PM57 °FScattered clouds.17 mph55%29.92 "HgN/A
3:00 PM59 °FScattered clouds.5 mph45%29.92 "HgN/A
2:00 PM59 °FPassing clouds.2 mph55%29.92 "HgN/A
1:00 PM59 °FPassing clouds.2 mph59%29.92 "HgN/A
12:00 PM59 °FScattered clouds.2 mph59%29.95 "HgN/A
11:00 AM57 °FScattered clouds.3 mph67%29.98 "HgN/A
10:00 AM57 °FPassing clouds.No wind67%30.01 "HgN/A
9:00 AM50 °FScattered clouds.3 mph82%30.01 "HgN/A
8:00 AM50 °FScattered clouds.5 mph76%30.01 "HgN/A
7:00 AM46 °FScattered clouds.5 mph82%30.01 "HgN/A
6:00 AM48 °FPassing clouds.2 mph82%29.98 "HgN/A
5:00 AM48 °FPassing clouds.5 mph82%29.98 "HgN/A
3:00 AM48 °FPassing clouds.6 mph82%29.98 "HgN/A
2:00 AM48 °FPassing clouds.6 mph82%29.98 "HgN/A
Weather by CustomWeather, © 2014

See weather overviewHow to use our weather pages